Terug naar catalogus

YAOGAN 16C

ActiefMilitairLEO
NORAD 39013·PAYLOAD·🇨🇳 China

Gelanceerd Nov 25, 2012 vanaf Jiuquan Satellite Launch Center

Loading…

Volgende Passages (komende 24 uur)

TLE

VersSource: Space-Track

Epoch: Sep 14, 2026, 14:13 UTC

1 39013U 12066C   26257.59272193 -.00000302  00000-0 -19601-3 0  9998
2 39013  63.3526  58.5902 0442982  27.2077 335.1424 13.45512375678162

Volg YAOGAN 16C in realtime met AllMySat

Download on the App Store